When you browse on this site, cookies collect data to enhance your experience and personalize the content and advertising you see.
Visit our Privacy Policy to learn more. By continuing to use the site, you agree to this use of cookies and data.
  • In United Kingdom
  • List of Countries
  • For 7 days
  • Water Temperature
  • Weather Map
  • Weather Widgets
  • user-avatar
    Login

    Hourly Weather Majkop

    Today, 19 September, Thursday

    Time Temperature Precipitation Wind Pressure Humidity
    00:00 +16°C° 0 mm 2 mps 733 mmHg 65%
    01:00 +16°C° 0 mm 2 mps 733 mmHg 70%
    02:00 +16°C° 0 mm 1 mps 733 mmHg 75%
    03:00 +16°C° 0 mm 1 mps 733 mmHg 79%
    04:00 +15°C° 0 mm 1 mps 734 mmHg 79%
    05:00 +15°C° 0 mm 1 mps 734 mmHg 79%
    06:00 +15°C° 0 mm 1 mps 734 mmHg 79%
    07:00 +16°C° 0 mm 1 mps 734 mmHg 73%
    08:00 +18°C° 0 mm 1 mps 734 mmHg 66%
    09:00 +18°C° 0 mm 1 mps 735 mmHg 61%
    10:00 +19°C° 0 mm 1 mps 735 mmHg 57%
    11:00 +20°C° 0 mm 1 mps 735 mmHg 54%
    12:00 +21°C° 0 mm 1 mps 735 mmHg 50%
    13:00 +21°C° 0 mm 1 mps 735 mmHg 49%
    14:00 +22°C° 0 mm 1 mps 735 mmHg 48%
    15:00 +22°C° 0 mm 1 mps 735 mmHg 47%
    16:00 +21°C° 0 mm 1 mps 735 mmHg 50%
    17:00 +20°C° 0 mm 1 mps 735 mmHg 53%
    18:00 +17°C° 0 mm 0 mps 735 mmHg 56%
    19:00 +18°C° 0 mm 1 mps 735 mmHg 57%
    20:00 +16°C° 0 mm 1 mps 735 mmHg 58%
    21:00 +15°C° 0 mm 1 mps 735 mmHg 59%
    22:00 +14°C° 0 mm 1 mps 735 mmHg 63%
    23:00 +13°C° 0 mm 1 mps 735 mmHg 68%

    Tomorrow, 20 September, Friday

    Time Temperature Precipitation Wind Pressure Humidity
    00:00 +12°C° 0 mm 1 mps 734 mmHg 72%
    01:00 +12°C° 0 mm 1 mps 734 mmHg 74%
    02:00 +12°C° 0 mm 1 mps 734 mmHg 77%
    03:00 +11°C° 0 mm 1 mps 733 mmHg 79%
    04:00 +11°C° 0 mm 1 mps 733 mmHg 81%
    05:00 +11°C° 0 mm 1 mps 733 mmHg 83%
    06:00 +9°C° 0 mm 0 mps 733 mmHg 85%
    07:00 +12°C° 0 mm 1 mps 733 mmHg 77%
    08:00 +14°C° 0 mm 1 mps 732 mmHg 69%
    09:00 +16°C° 0 mm 2 mps 732 mmHg 60%
    10:00 +17°C° 0 mm 2 mps 732 mmHg 57%
    11:00 +18°C° 0 mm 3 mps 732 mmHg 54%
    12:00 +19°C° 0 mm 3 mps 732 mmHg 50%
    13:00 +18°C° 0 mm 3 mps 732 mmHg 51%
    14:00 +18°C° 0 mm 3 mps 731 mmHg 51%
    15:00 +17°C° 0 mm 4 mps 731 mmHg 51%
    16:00 +16°C° 0 mm 3 mps 731 mmHg 57%
    17:00 +13°C° 0 mm 3 mps 731 mmHg 62%
    18:00 +13°C° 0 mm 2 mps 731 mmHg 67%
    19:00 +12°C° 0.4 mm 2 mps 731 mmHg 75%
    20:00 +12°C° 0.4 mm 2 mps 731 mmHg 82%
    21:00 +11°C° 0.4 mm 1 mps 731 mmHg 90%
    22:00 +11°C° 1.3 mm 1 mps 731 mmHg 92%
    23:00 +11°C° 1.3 mm 1 mps 731 mmHg 94%

    Day after tomorrow, 21 September, Saturday

    Time Temperature Precipitation Wind Pressure Humidity
    00:00 +11°C° 1.3 mm 1 mps 731 mmHg 96%
    01:00 +11°C° 0.7 mm 1 mps 731 mmHg 96%
    02:00 +11°C° 0.7 mm 1 mps 731 mmHg 96%
    03:00 +11°C° 0.7 mm 1 mps 731 mmHg 96%
    04:00 +10°C° 0.1 mm 1 mps 731 mmHg 96%
    05:00 +10°C° 0.1 mm 1 mps 731 mmHg 96%
    06:00 +10°C° 0.1 mm 1 mps 731 mmHg 96%
    07:00 +10°C° 0.1 mm 1 mps 732 mmHg 92%
    08:00 +11°C° 0.1 mm 1 mps 732 mmHg 89%
    09:00 +12°C° 0.1 mm 2 mps 732 mmHg 85%
    10:00 +13°C° 0.2 mm 2 mps 733 mmHg 76%
    11:00 +14°C° 0.2 mm 3 mps 733 mmHg 67%
    12:00 +15°C° 0.2 mm 4 mps 733 mmHg 59%
    13:00 +15°C° 0.4 mm 4 mps 733 mmHg 60%
    14:00 +15°C° 0.4 mm 4 mps 734 mmHg 60%
    15:00 +15°C° 0.4 mm 4 mps 734 mmHg 61%
    16:00 +13°C° 0.2 mm 4 mps 734 mmHg 65%
    17:00 +12°C° 0.2 mm 4 mps 734 mmHg 70%
    18:00 +11°C° 0.2 mm 3 mps 734 mmHg 74%
    19:00 +10°C° 0 mm 3 mps 735 mmHg 77%
    20:00 +9°C° 0 mm 3 mps 736 mmHg 81%
    21:00 +8°C° 0 mm 2 mps 736 mmHg 84%
    22:00 +7°C° 0 mm 2 mps 736 mmHg 84%
    23:00 +7°C° 0 mm 2 mps 737 mmHg 84%

    22 September, Sunday

    Time Temperature Precipitation Wind Pressure Humidity
    00:00 +7°C° 0 mm 2 mps 737 mmHg 83%
    01:00 +6°C° 0 mm 2 mps 737 mmHg 83%
    02:00 +6°C° 0 mm 2 mps 737 mmHg 83%
    03:00 +6°C° 0 mm 2 mps 737 mmHg 83%
    04:00 +6°C° 0 mm 2 mps 737 mmHg 82%
    05:00 +6°C° 0 mm 2 mps 737 mmHg 82%
    06:00 +6°C° 0 mm 2 mps 737 mmHg 81%
    07:00 +8°C° 0 mm 3 mps 737 mmHg 71%
    08:00 +11°C° 0 mm 3 mps 737 mmHg 62%
    09:00 +13°C° 0 mm 3 mps 737 mmHg 52%
    10:00 +16°C° 0 mm 3 mps 737 mmHg 48%
    11:00 +17°C° 0 mm 4 mps 737 mmHg 44%
    12:00 +19°C° 0 mm 4 mps 736 mmHg 40%
    13:00 +19°C° 0 mm 5 mps 736 mmHg 41%
    14:00 +19°C° 0 mm 5 mps 736 mmHg 43%
    15:00 +17°C° 0 mm 5 mps 735 mmHg 45%
    16:00 +17°C° 0 mm 4 mps 735 mmHg 52%
    17:00 +14°C° 0 mm 4 mps 735 mmHg 58%
    18:00 +13°C° 0 mm 3 mps 735 mmHg 65%
    19:00 +12°C° 0 mm 3 mps 735 mmHg 68%
    20:00 +10°C° 0 mm 3 mps 735 mmHg 71%
    21:00 +9°C° 0 mm 2 mps 735 mmHg 75%
    22:00 +9°C° 0 mm 2 mps 735 mmHg 69%
    23:00 +9°C° 0 mm 3 mps 735 mmHg 64%

    23 September, Monday

    Time Temperature Precipitation Wind Pressure Humidity
    00:00 +9°C° 0 mm 3 mps 735 mmHg 59%
    01:00 +9°C° 0 mm 3 mps 735 mmHg 59%
    02:00 +9°C° 0 mm 3 mps 735 mmHg 59%
    03:00 +10°C° 0 mm 3 mps 735 mmHg 60%
    04:00 +10°C° 0 mm 3 mps 735 mmHg 62%
    05:00 +10°C° 0 mm 3 mps 735 mmHg 65%
    06:00 +10°C° 0 mm 3 mps 735 mmHg 68%
    07:00 +12°C° 0 mm 3 mps 736 mmHg 64%
    08:00 +16°C° 0 mm 3 mps 736 mmHg 61%
    09:00 +18°C° 0 mm 3 mps 736 mmHg 57%
    10:00 +19°C° 0 mm 3 mps 736 mmHg 55%
    11:00 +20°C° 0 mm 3 mps 737 mmHg 52%
    12:00 +21°C° 0 mm 4 mps 737 mmHg 50%
    13:00 +21°C° 0.1 mm 4 mps 736 mmHg 52%
    14:00 +21°C° 0.1 mm 4 mps 736 mmHg 54%
    15:00 +20°C° 0.1 mm 4 mps 736 mmHg 56%
    16:00 +19°C° 0.1 mm 3 mps 736 mmHg 66%
    17:00 +17°C° 0.1 mm 2 mps 735 mmHg 75%
    18:00 +15°C° 0.1 mm 1 mps 735 mmHg 85%
    19:00 +15°C° 0 mm 1 mps 736 mmHg 85%
    20:00 +14°C° 0 mm 1 mps 736 mmHg 86%
    21:00 +13°C° 0 mm 1 mps 736 mmHg 86%
    22:00 +12°C° 0 mm 1 mps 736 mmHg 87%
    23:00 +12°C° 0 mm 1 mps 736 mmHg 88%

    24 September, Tuesday

    Time Temperature Precipitation Wind Pressure Humidity
    00:00 +11°C° 0 mm 1 mps 735 mmHg 88%
    01:00 +11°C° 0 mm 1 mps 735 mmHg 89%
    02:00 +11°C° 0 mm 1 mps 735 mmHg 89%
    03:00 +11°C° 0 mm 1 mps 735 mmHg 90%
    04:00 +10°C° 0 mm 1 mps 735 mmHg 90%
    05:00 +10°C° 0 mm 1 mps 735 mmHg 90%
    06:00 +10°C° 0 mm 1 mps 735 mmHg 89%
    07:00 +13°C° 0 mm 1 mps 735 mmHg 81%
    08:00 +15°C° 0 mm 1 mps 734 mmHg 73%
    09:00 +17°C° 0 mm 0 mps 734 mmHg 64%
    10:00 +21°C° 0 mm 1 mps 734 mmHg 56%
    11:00 +23°C° 0 mm 1 mps 734 mmHg 48%
    12:00 +25°C° 0 mm 1 mps 734 mmHg 40%
    13:00 +25°C° 0 mm 1 mps 733 mmHg 39%
    14:00 +25°C° 0 mm 1 mps 733 mmHg 38%
    15:00 +25°C° 0 mm 1 mps 732 mmHg 37%
    16:00 +23°C° 0 mm 1 mps 732 mmHg 44%
    17:00 +21°C° 0 mm 1 mps 731 mmHg 51%
    18:00 +19°C° 0 mm 1 mps 731 mmHg 59%
    19:00 +18°C° 0 mm 1 mps 731 mmHg 61%
    20:00 +16°C° 0 mm 1 mps 731 mmHg 64%
    21:00 +16°C° 0 mm 1 mps 731 mmHg 67%
    22:00 +15°C° 0 mm 1 mps 730 mmHg 66%
    23:00 +15°C° 0 mm 1 mps 730 mmHg 65%
    Show more